Погода в Итанце

Россия / Республика Бурятия     52°09′24″N   107°29′53″E
темп.,
°C
ветер,
м/с
пор.,
м/с
влажн.,
%
обл.,
%
осадки,
мм/ч
давл.,
гПа
погр.,
м
8 августа, пн
пн823:00+7сз22842 0.0 101431
02:00+6зсз11920 0.0 101512
05:00+5сз11920 0.0 101511
08:00+12ююз11620 0.0 1013287
11:00+19юз24370 0.0 10111428
14:00+22зсз45220 0.0 10102035
17:00+22сз34250 0.0 10091969
20:00+14зсз22510 0.0 101014
9 августа, вт
вт923:00+10ссз11600 0.0 101211
02:00+9ссз11660 0.0 101311
05:00+8с11744 0.0 101310
08:00+15ю11525 0.0 1011190
11:00+22ю233350 0.0 10091475
14:00+25зюз34229 0.0 10072341
17:00+24с332628 0.0 10061779
20:00+16св226254 0.0 100820
10 августа, ср
ср1023:00+12ссв2274100 0.0 100920
02:00+10ссв118042 0.0 100912
05:00+11св117287 0.0 100920
08:00+15в1157100 0.0 1008208
11:00+20ююв124382 0.0 1007817
14:00+23з2240100 0.0 10052055
17:00+23юз0236100 0.0 10051977
20:00+15з1164100 0.0 100714
11 августа, чт
чт1123:00+11зсз117990 0.0 100913
02:00+9з11860 0.0 101013
05:00+9зсз11915 0.0 101010
08:00+15юз12635 0.0 1010246
11:00+23з353848 0.0 10081864
14:00+24зсз453474 0.0 10072200
17:00+23зсз46375 0.0 10071948
20:00+17зсз22645 0.0 100821
12 августа, пт
пт1223:00+12зсз11830 0.0 101014
02:00+10з22945 0.0 101016
05:00+10зсз119545 0.0 101014
08:00+15юз12700 0.0 1009364
11:00+22з363737 0.0 10071621
14:00+24зсз462773 0.0 10061775
17:00+23ссз3432100 0.0 10051544
20:00+16св2263100 0.0 100716